Home > Weather > Constantine > Past weeks

Flag for Algeria Weather for the Past 2 Weeks in Constantine, Algeria

Now
57 °F

Partly sunny.


Feels Like: 53 °F
Forecast: 53 / 67 °F
Wind: 20 mph from Northwest

Location: Constantine Airport

Current Time: Feb 10, 2016 at 2:14:17 PM

Latest Report: Feb 10, 2016 at 1:30 PM


Visibility: N/A

Pressure: 30.07 "Hg (28.14 "Hg at 557m altitude)

Humidity: 63%

Dew point: 45 °F

Location of ConstantineLocation

Historic Weather in Constantine — Graph

°F

Constantine Temperature Yesterday

Maximum temperature yesterday: 66 °F (at 2:00 PM)
Minimum temperature yesterday: 36 °F (at 4:00 AM)
Average temperature yesterday: 50 °F

High & Low Weather Summary for the Past Weeks

 TemperatureHumidityPressure
High66 °F (Jan 26, 4:30 PM)100% (Jan 29, 4:00 AM)30.54 "Hg (Jan 29, 4:00 AM)
Low32 °F (Feb 6, 6:30 AM)36% (Jan 30, 2:00 PM)30.01 "Hg (Feb 7, 3:30 PM)
Average48 °F72%30.36 "Hg
* Reported Jan 26 12:00 Noon — Feb 10 12:30 PM, Constantine, Weather by CustomWeather, © 2016

Note: Actual official high and low records may vary slightly from our data, if they occured in-between our weather recording intervals... More about our weather records

Advertising

Constantine Weather History for the Previous 24 Hours

 ConditionsComfort  
Time TempWeatherWind HumidityBarometerVisibility
12:30 PM
Wed, Feb 10
57 °FBroken clouds.18 mph63%30.07 "HgN/A
12:00 PM55 °FBroken clouds.15 mph67%30.07 "HgN/A
11:30 AM54 °FBroken clouds.14 mph67%30.09 "HgN/A
11:00 AM54 °FBroken clouds.18 mph63%30.09 "HgN/A
10:30 AM54 °FBroken clouds.21 mph63%30.07 "HgN/A
10:00 AM54 °FBroken clouds.18 mph63%30.07 "HgN/A
9:30 AM52 °FBroken clouds.16 mph67%30.07 "HgN/A
9:00 AM52 °FBroken clouds.18 mph62%30.07 "HgN/A
8:30 AM52 °FScattered clouds.16 mph62%30.04 "HgN/A
8:00 AM52 °FScattered clouds.17 mph62%30.04 "HgN/A
7:30 AM52 °FScattered clouds.18 mph58%30.04 "HgN/A
7:00 AM50 °FPassing clouds.18 mph62%30.04 "HgN/A
6:30 AM50 °FClear.21 mph62%30.01 "Hg10 mi
6:00 AM50 °FClear.15 mph62%30.01 "Hg10 mi
5:30 AM52 °FClear.20 mph54%30.01 "Hg10 mi
5:00 AM52 °FClear.23 mph54%30.01 "Hg10 mi
4:30 AM52 °FClear.23 mph54%30.04 "Hg10 mi
4:00 AM52 °FClear.21 mph54%30.04 "Hg10 mi
3:30 AM52 °FClear.22 mph50%30.04 "Hg10 mi
3:00 AM52 °FClear.22 mph50%30.04 "Hg10 mi
2:30 AM52 °FClear.20 mph54%30.07 "Hg10 mi
1:30 AM52 °FClear.13 mph50%30.07 "Hg10 mi
1:00 AM54 °FClear.20 mph47%30.07 "Hg10 mi
12:30 AM54 °FClear.16 mph51%30.09 "Hg10 mi
12:00 AM50 °FClear.5 mph58%30.09 "Hg10 mi
11:30 PM
Tue, Feb 9
52 °FClear.3 mph54%30.09 "Hg10 mi
10:30 PM52 °FClear.2 mph54%30.09 "Hg10 mi
10:00 PM52 °FClear.3 mph54%30.12 "Hg10 mi
9:30 PM52 °FClear.7 mph50%30.12 "Hg10 mi
9:00 PM55 °FClear.15 mph47%30.12 "Hg10 mi
8:30 PM54 °FClear.12 mph51%30.12 "Hg10 mi
8:00 PM55 °FClear.12 mph47%30.12 "Hg10 mi
7:30 PM55 °FClear.6 mph44%30.12 "Hg10 mi
7:00 PM57 °FClear.14 mph41%30.12 "Hg10 mi
6:30 PM57 °FClear.6 mph41%30.12 "Hg10 mi
6:00 PM57 °FSunny.5 mph41%30.12 "Hg10 mi
5:30 PM61 °FSunny.13 mph42%30.12 "Hg10 mi
5:00 PM61 °FSunny.10 mph42%30.12 "Hg10 mi
4:30 PM63 °FSunny.18 mph37%30.12 "Hg10 mi
4:00 PM63 °FSunny.24 mph37%30.12 "Hg10 mi
3:30 PM64 °FSunny.21 mph40%30.15 "Hg10 mi
3:00 PM66 °FSunny.21 mph37%30.15 "Hg10 mi
2:30 PM66 °FSunny.18 mph40%30.18 "Hg10 mi
2:00 PM66 °FSunny.13 mph40%30.18 "Hg10 mi
Weather by CustomWeather, © 2016

See weather overviewHow to use our weather pages